Regional Weather Roundup
Issued by NWS Cleveland, OH

Home | Current Version | Previous Version | Text Only | Print | Product List | Glossary On
Versions: 1 2 3 4 5 6 7 8 9 10 11 12 13 14 15 16 17 18 19 20 21 22 23 24 25 26 27 28 29 30 31 32 33 34 35 36 37 38 39 40 41 42 43 44 45 46 47 48 49 50
000
ASUS41 KCLE 170812
RWRCLE
OHIO REGIONAL WEATHER ROUNDUP
NATIONAL WEATHER SERVICE WILMINGTON, OH
300 AM EST SUN FEB 17 2019

NOTE: "FAIR" INDICATES FEW OR NO CLOUDS BELOW 12,000 FEET WITH NO
SIGNIFICANT WEATHER AND/OR OBSTRUCTIONS TO VISIBILITY.

OHZ001>008-015>018-024>027-034-035-043-044-170900-
   NORTHWEST OHIO

CITY           SKY/WX    TMP DP  RH WIND       PRES   REMARKS
DEFIANCE       CLOUDY    25  18  74 E13       30.04F WCI  14
FINDLAY        CLOUDY    26  18  71 E13       30.02S WCI  15
TOLEDO EXPRESS CLOUDY    26  17  68 E9        30.05R WCI  17
TOLEDO EXEC    CLOUDY    26  18  71 E8        30.06S WCI  18
LIMA           CLOUDY    24  18  77 E14       30.00F WCI  12
$$

OHZ009>014-019>023-028>033-038-089-170900-
   NORTHEAST OHIO

CITY           SKY/WX    TMP DP  RH WIND       PRES   REMARKS
CLE-HOPKINS    CLOUDY    26  16  65 E12       30.07S WCI  16
CLE-LAKEFRONT  CLOUDY    26  18  71 E7        30.06S WCI  18
CUY CO. ARPT   NOT AVBL
LORAIN-ELYRIA  CLOUDY    25  14  63 E8        30.05S WCI  16
ASHTABULA      CLOUDY    24  18  77 NE5       30.05F WCI  18
AKRON-CANTON   CLOUDY    25  16  68 E9        30.01F WCI  15
WOOSTER        CLOUDY    24  17  74 E10       30.02R WCI  14
MANSFIELD      CLOUDY    23  18  81 E10       29.99S WCI  12
YOUNGSTOWN     CLOUDY    24  16  71 E8        30.02F WCI  15
$$

OHZ042-051>053-060>062-070>072-077>081-170900-
  SOUTHWEST OHIO

CITY           SKY/WX    TMP DP  RH WIND       PRES   REMARKS
CINC-COVINGTON CLOUDY    27  20  75 NE12      29.92F WCI  17
CINC-LUNKEN    FAIR      27  21  78 E6        29.96F WCI  20
HAMILTON       FAIR      26  20  77 NE7       29.96F WCI  18
DAYTON         FAIR      23  18  81 E8        29.98S WCI  14
WRIGHT-PAT AFB MOCLDY    23  17  78 NE8       29.98S WCI  14
DAYTON GENERAL FAIR      25  19  78 E12       29.94F WCI  14
WILMINGTON     FAIR      23  19  85 E10       29.94F WCI  12
$$

OHZ036-037-039>041-045>050-054>059-063>069-073>076-082>088-170900-
  CENTRAL AND SOUTHEAST OHIO

CITY           SKY/WX    TMP DP  RH WIND       PRES   REMARKS
COLUMBUS       FAIR      22  17  81 E7        29.99F WCI  13
OSU AIRPORT    FAIR      21  17  84 E6        29.99F WCI  13
BOLTON FIELD   FAIR      23  19  83 E6        29.99F WCI  16
RICKENBACK AFB FAIR      23  18  81 E8        29.99F WCI  14
NEWARK         FAIR      26  18  71 E6        30.01R WCI  19
MARION         CLOUDY    25  18  74 E9        30.02R WCI  15
LANCASTER      FAIR      24  18  77 E8        29.99F WCI  15
ZANESVILLE     FAIR      24  17  74 NE5       30.01S WCI  18
NEW PHILLY     MOCLDY    25  16  68 E10       30.03S WCI  15
$$



USA.gov is the U.S. government's official web portal to all federal, state and local government web resources and services.